AirNav   Duncan Aviation - Near you to keep you flying
 
 1290 users online  

W58 Cedars North Airport
Battle Ground, Washington, USA

GOING TO BATTLE GROUND?


FAA INFORMATION EFFECTIVE 03 NOVEMBER 2022

Location

FAA Identifier: W58
Lat/Long: 45-45-52.4000N 122-30-54.3000W
45-45.873333N 122-30.905000W
45.7645556,-122.5150833
(estimated)
Elevation: 275 ft. / 84 m (estimated)
Variation: 19E (1985)
From city: 1 mile NW of BATTLE GROUND, WA
Time zone: UTC -8 (UTC -7 during Daylight Saving Time)
Zip code: 98604

Airport Operations

Airport use: Open to the public
Activation date: 06/1991
Control tower: no
ARTCC: SEATTLE CENTER
FSS: SEATTLE FLIGHT SERVICE STATION
NOTAMs facility: SEA (NOTAM-D service available)
Attendance: UNATNDD
Wind indicator: yes
Segmented circle: no

Airport Communications

CTAF: 122.9
WX ASOS at VUO (10 nm SW): 135.125 (360-696-1280)
WX ASOS at PDX (11 nm S): PHONE (503) 493-7687
WX ASOS at TTD (14 nm S): 135.625 (503-492-2887)
WX ASOS at SPB (15 nm W): 135.875 (503-543-6401)

Nearby radio navigation aids

VOR radial/distance  VOR name  Freq  Var
BTGr052/3.4BATTLE GROUND VORTAC116.6021E
UBGr017/31.4NEWBERG VOR/DME117.4021E

 
NDB name  Hdg/Dist  Freq  Var  ID
BANKS054/23.735616EPND .--. -. -..

Airport Services

Runway Information

Runway 8/26

Dimensions: 1960 x 50 ft. / 597 x 15 m
Surface: turf, in excellent condition
RY EDGES MARKED WITH WHITE CONES.
RUNWAY 8  RUNWAY 26
Traffic pattern: leftleft
Obstructions: 80 ft. trees, 872 ft. from runway, 10:1 slope to clear101 ft. trees, 864 ft. from runway, 19 ft. left of centerline, 8:1 slope to clear

Airport Ownership and Management from official FAA records

Ownership: Privately-owned
Owner: CEDARS HOMEOWNERS ASSOCIATION
19506 NE 157 AVE
BATTLE GROUND, WA 98604
Phone 360-687-8234
Manager: STUART DAVIS
19506 NE 157 AVE
BATTLE GROUND, WA 98604
Phone 360-687-8234

Airport Operational Statistics

Aircraft based on the field: 4
Single engine airplanes: 4
    
Aircraft operations: avg 24/week *
48% transient general aviation
48% local general aviation
4% military
* for 12-month period ending 31 December 2019

Additional Remarks

BIRDS ON AND INVOF ARPT.
RWY 08 5 FT FENCE POSTS, 84 FT FROM THRESHOLD.
RWY AND TAXIWAY SOFT IN WINTER.
FOR CD CTC PORTLAND APCH AT 503-493-7545.

Instrument Procedures

There are no published instrument procedures at W58.

Some nearby airports with instrument procedures:

KVUO - Pearson Field Airport (10 nm SW)
KPDX - Portland International Airport (11 nm S)
KTTD - Portland-Troutdale Airport (14 nm S)
KSPB - Scappoose Airport (15 nm W)
KHIO - Portland-Hillsboro Airport (23 nm SW)
 
Loc | Ops | Rwys | IFR | FBO | Links
Com | Nav | Svcs | Stats | Notes
Area around W58 (Cedars North Airport)
 
Road maps at: MapQuest Bing Google
 
Aerial photo
WARNING: Photo may not be current or correct
Aerial photo of W58 (Cedars North Airport)
Do you have a better or more recent aerial photo of Cedars North Airport that you would like to share? If so, please send us your photo.

 
Sectional chart

 
Airport distance calculator
Flying to Cedars North Airport? Find the distance to fly.

From to W58

Sunrise and sunset
Times for 30-Nov-2022
 Local
(UTC-8)
 Zulu
(UTC)
Morning civil twilight06:5714:57
Sunrise07:3115:31
Sunset16:2700:27
Evening civil twilight17:0101:01

Current date and time
Zulu (UTC)  30-Nov-2022 22:06:37
Local (UTC-8)  30-Nov-2022 14:06:37
 
METAR
KVUO 
11nm SW 
302153Z AUTO 27009KT 6SM -RA OVC025 06/02 A2954 RMK AO2 RAB38 SLP003 P0002 T00610022
KPDX 
11nm S 
302153Z 21005KT 10SM FEW020 BKN045 BKN060 09/04 A2952 RMK AO2 RAE34 SLP995 P0000 T00890044
KTTD 
14nm S 
302153Z 17008KT 10SM SCT075 BKN110 09/04 A2953 RMK AO2 SLP999 T00890044
KSPB 
15nm W 
302153Z AUTO 14006KT 10SM FEW055 BKN095 BKN110 07/04 A2951 RMK AO2 SLP991 T00720039
TAF
KPDX 
11nm S 
302017Z 3020/0118 19009G19KT P6SM -SHRA FEW015 SCT050 BKN110 FM010600 19009KT P6SM -SHRA BKN023 FM011200 19006KT 2SM -SHSN BKN030
KTTD 
14nm S 
302019Z 3020/0118 20007KT P6SM -SHRA SCT060 BKN070 OVC090 FM302100 22009KT P6SM -SHRA OVC014 FM010400 19010G20KT P6SM -SHRA BKN024 FM011200 21007KT 2SM -SHSN OVC030
NOTAMs
Click for the latest NOTAMs
NOTAMs are issued by the DoD/FAA and will open in a separate window not controlled by AirNav.

 

 
 

Would you like to see your business listed on this page?

 If your business provides an interesting product or service to pilots, flight crews, aircraft, or users of the Cedars North Airport, you should consider listing it here.  To start the listing process, click on the button below
 
Add a business
 

Other Pages about Cedars North Airport

Update a link
 
Copyright © AirNav, LLC. All rights reserved. Privacy Policy  Contact